Temp
10 10 10 10 10 10 11 11 11 10 11 11 11 11 11 12 12 12 12 13 13 13 13 14 14 14 14 14 14 14 14 13 14 14 14 13 13 12 12 12 11 11 11 11 11
10 10 10 10 11 11 11 11 11 10 11 11 11 11 11 12 13 12 13 13 13 13 13 14 14 15 14 14 14 14 14 14 14 14 15 14 13 12 12 13 12 12 11 11 10
10 10 11 11 11 11 11 11 11 11 11 11 11 12 12 12 13 12 13 13 13 13 14 14 15 15 15 15 14 14 15 15 14 14 14 14 14 13 13 13 13 12 11 11 10
11 11 11 11 11 11 11 11 11 11 11 11 11 12 12 12 13 13 13 13 13 14 14 14 15 15 15 15 15 15 15 15 15 15 14 14 14 14 14 13 13 12 11 11 11
11 11 11 11 11 12 12 12 11 11 11 11 11 11 12 12 13 13 13 13 14 13 14 14 15 15 15 15 15 15 15 15 15 15 14 14 14 14 14 14 13 13 12 11 10
11 11 12 12 12 12 12 12 12 12 11 11 11 12 12 13 12 13 13 13 14 14 14 14 15 15 15 15 15 15 15 15 15 15 15 14 14 14 14 14 14 13 12 11 11
11 11 11 12 12 12 12 12 12 12 12 12 12 12 12 13 13 13 13 13 13 14 14 15 15 15 15 15 15 16 15 16 16 15 15 14 15 15 15 14 14 13 13 12 12
11 11 11 12 12 12 13 13 13 12 12 12 12 13 13 13 14 13 13 13 13 14 14 15 15 15 15 15 15 16 16 16 16 16 15 15 16 16 16 15 14 14 13 13 12
11 11 11 11 12 12 12 13 13 13 13 13 13 13 13 14 13 13 13 14 13 14 14 14 15 15 15 15 16 16 16 16 16 16 16 16 16 16 16 16 15 15 14 13 13
11 11 11 11 11 12 12 12 13 13 13 13 13 13 13 13 13 13 14 14 13 14 14 14 15 15 15 16 15 15 15 16 16 16 16 16 17 16 17 17 16 15 15 14 13
11 11 11 11 11 11 12 12 13 13 13 13 13 13 13 13 13 13 14 13 13 14 14 15 15 15 15 15 15 15 15 16 17 17 16 17 17 17 16 17 17 17 16 15 14
11 11 11 11 11 11 12 12 13 13 13 13 13 13 13 13 14 14 13 13 13 14 13 14 15 15 15 15 15 16 16 16 16 17 17 16 17 17 17 17 17 17 16 16 15
11 11 11 11 11 11 12 12 12 13 13 13 13 13 13 13 14 14 13 13 13 13 14 14 15 15 15 16 16 16 16 16 16 17 17 17 17 17 17 18 18 17 17 16 15
11 11 11 11 11 11 12 12 12 13 13 14 14 13 13 13 13 13 14 14 13 14 14 15 15 15 15 16 16 16 16 16 16 17 17 16 16 17 18 18 18 17 17 17 16
11 11 11 11 11 11 12 12 12 13 11 14 13 13 13 14 14 14 14 13 14 14 14 15 15 15 16 16 16 16 16 16 17 17 17 16 16 16 17 18 18 17 17 17 16
10 11 11 11 11 11 12 12 12 12 13 14 14 14 14 13 14 14 14 13 13 14 14 15 15 15 16 16 16 16 16 16 16 16 15 14 15 16 16 17 17 17 17 17 16
10 11 11 11 11 11 12 12 12 12 14 14 14 14 14 14 14 14 14 13 13 14 15 15 16 16 16 16 16 16 16 16 14 12 12 14 14 14 16 17 17 17 17 17 17
10 11 11 11 11 11 12 12 12 14 14 14 14 14 14 14 14 14 14 14 14 14 14 15 16 15 16 16 16 16 16 16 14 11 13 14 13 14 15 17 17 17 17 17 17
10 11 11 11 11 11 11 12 13 14 14 14 14 14 14 14 14 14 14 14 14 15 14 15 15 16 16 16 16 16 16 16 16 13 13 12 13 14 14 16 16 17 17 17 16
10 11 11 11 11 11 11 13 13 14 14 14 15 15 15 15 14 15 15 15 15 15 15 15 15 16 16 16 16 16 16 16 16 13 13 12 12 13 13 14 15 16 16 16 15
10 10 10 10 10 11 11 12 13 14 14 15 15 15 15 15 15 15 15 15 15 16 15 15 15 16 16 16 16 16 16 16 15 15 11 9 12 13 13 14 14 14 14 14 14
9 10 10 10 11 11 12 13 14 14 14 15 15 15 15 15 15 15 15 15 15 15 15 15 15 15 15 15 15 15 15 16 16 14 14 13 13 12 12 13 13 13 13 14 14
9 10 10 10 10 11 12 13 14 14 14 14 15 15 15 15 15 15 14 15 15 15 15 15 15 15 14 14 14 14 14 14 14 15 14 13 14 13 12 12 12 12 12 12 13
9 9 9 10 10 11 12 13 13 13 14 14 15 15 15 14 15 15 14 14 14 14 15 15 15 15 14 13 13 13 13 13 14 14 14 15 15 14 12 12 12 12 11 11 11
9 10 10 10 11 12 12 13 13 13 14 14 14 15 15 15 14 14 14 14 14 14 14 14 14 14 14 13 13 13 13 13 13 13 13 14 14 14 12 12 11 11 10 11 11
9 10 9 10 11 11 12 12 13 13 14 14 14 14 14 14 14 14 14 14 14 13 13 13 13 13 13 13 13 12 12 12 13 13 13 13 13 13 11 11 10 10 10 10 10
9 10 10 11 11 12 12 12 12 13 13 14 14 14 14 14 14 14 14 14 13 13 13 13 12 12 12 12 12 11 11 12 12 12 12 12 12 12 11 10 9 9 9 9 9
Height
3149 3151 3152 3154 3155 3156 3157 3158 3158 3159 3160 3161 3163 3164 3165 3166 3167 3169 3171 3174 3175 3177 3177 3178 3177 3176 3176 3177 3177 3177 3177 3176 3176 3175 3176 3174 3175 3175 3176 3175 3174 3174 3175 3176 3177
3149 3151 3152 3153 3154 3156 3157 3157 3158 3159 3160 3160 3161 3163 3164 3165 3167 3169 3172 3173 3175 3177 3178 3178 3178 3177 3178 3178 3178 3178 3178 3178 3178 3177 3176 3177 3176 3177 3178 3176 3174 3173 3174 3176 3178
3149 3150 3151 3153 3154 3155 3156 3157 3158 3159 3159 3159 3160 3161 3163 3165 3168 3169 3171 3172 3174 3177 3178 3178 3178 3178 3178 3179 3179 3179 3180 3180 3179 3178 3179 3178 3178 3179 3178 3177 3175 3173 3174 3176 3179
3148 3149 3150 3151 3153 3154 3155 3156 3157 3157 3158 3158 3159 3160 3161 3164 3169 3168 3170 3172 3174 3176 3178 3178 3178 3178 3179 3180 3180 3181 3181 3181 3181 3179 3180 3180 3180 3180 3180 3180 3177 3174 3174 3177 3179
3146 3147 3148 3150 3151 3152 3153 3154 3155 3155 3156 3156 3157 3158 3159 3162 3166 3167 3169 3171 3174 3176 3177 3178 3178 3178 3180 3181 3181 3182 3182 3182 3182 3181 3182 3182 3182 3182 3182 3181 3181 3177 3176 3178 3180
3144 3145 3146 3147 3148 3149 3150 3151 3152 3153 3153 3154 3155 3156 3158 3161 3163 3166 3168 3171 3174 3176 3177 3178 3179 3179 3181 3181 3183 3183 3182 3182 3182 3182 3182 3183 3183 3182 3183 3183 3183 3181 3179 3179 3181
3143 3143 3143 3144 3146 3147 3148 3148 3149 3150 3151 3151 3152 3154 3155 3160 3162 3165 3168 3170 3173 3176 3177 3178 3179 3181 3182 3182 3182 3183 3183 3182 3182 3183 3183 3183 3184 3183 3182 3183 3184 3184 3183 3181 3182
3142 3141 3141 3142 3143 3144 3145 3146 3147 3148 3149 3149 3151 3152 3155 3157 3161 3164 3166 3169 3172 3174 3177 3178 3180 3181 3182 3183 3183 3183 3183 3182 3182 3182 3183 3185 3183 3183 3183 3183 3184 3185 3185 3185 3184
3140 3140 3140 3139 3140 3141 3142 3143 3145 3146 3147 3148 3150 3152 3155 3157 3161 3162 3165 3168 3170 3173 3176 3178 3179 3180 3182 3182 3183 3182 3182 3181 3180 3181 3182 3183 3182 3182 3182 3183 3183 3184 3185 3186 3186
3138 3138 3138 3138 3138 3139 3140 3142 3143 3145 3147 3148 3150 3154 3155 3156 3158 3160 3163 3166 3169 3172 3175 3177 3178 3179 3181 3182 3183 3182 3181 3181 3180 3181 3181 3182 3182 3182 3182 3182 3183 3184 3185 3186 3188
3136 3137 3137 3136 3137 3137 3140 3142 3146 3147 3147 3149 3150 3151 3153 3155 3157 3159 3161 3165 3167 3170 3173 3175 3177 3179 3182 3182 3181 3180 3180 3180 3180 3180 3180 3180 3181 3182 3183 3182 3183 3184 3185 3187 3188
3134 3135 3135 3135 3136 3137 3139 3140 3142 3146 3147 3149 3150 3152 3154 3155 3156 3158 3162 3165 3167 3169 3172 3175 3176 3180 3181 3181 3179 3179 3179 3179 3179 3179 3180 3180 3180 3180 3179 3180 3182 3184 3185 3186 3187
3132 3133 3133 3134 3135 3136 3138 3141 3143 3145 3147 3150 3151 3153 3155 3157 3158 3160 3163 3165 3167 3170 3171 3173 3177 3179 3179 3179 3179 3179 3178 3178 3178 3178 3179 3179 3178 3177 3178 3178 3181 3183 3185 3186 3187
3130 3131 3132 3133 3136 3135 3139 3141 3143 3145 3148 3151 3152 3155 3157 3158 3161 3162 3164 3167 3169 3171 3172 3173 3176 3177 3177 3177 3178 3177 3177 3176 3177 3177 3178 3178 3178 3176 3177 3177 3180 3182 3183 3185 3187
3128 3129 3131 3132 3133 3136 3140 3142 3144 3146 3148 3152 3152 3154 3156 3160 3162 3163 3165 3167 3169 3171 3173 3174 3175 3176 3176 3177 3177 3178 3176 3176 3176 3176 3177 3177 3178 3176 3175 3177 3180 3181 3182 3183 3185
3125 3127 3130 3131 3133 3136 3139 3142 3145 3148 3147 3149 3151 3152 3156 3159 3161 3163 3165 3167 3168 3170 3171 3171 3172 3173 3175 3175 3175 3175 3175 3174 3174 3174 3175 3175 3176 3175 3174 3176 3179 3180 3181 3182 3184
3124 3126 3129 3131 3133 3135 3139 3143 3146 3144 3147 3149 3150 3152 3156 3159 3161 3162 3164 3166 3168 3171 3171 3171 3171 3171 3172 3173 3174 3174 3174 3174 3174 3174 3176 3175 3176 3174 3174 3175 3178 3179 3180 3180 3182
3122 3124 3127 3130 3133 3136 3139 3144 3144 3143 3145 3147 3149 3152 3156 3158 3161 3162 3164 3165 3167 3169 3170 3169 3169 3168 3169 3171 3172 3172 3173 3173 3175 3177 3174 3175 3175 3174 3174 3175 3177 3178 3179 3179 3179
3121 3123 3127 3130 3134 3137 3140 3142 3141 3143 3145 3145 3148 3152 3155 3157 3160 3162 3163 3165 3165 3167 3169 3168 3167 3165 3167 3169 3172 3171 3171 3172 3171 3172 3173 3176 3176 3175 3174 3175 3177 3178 3178 3178 3178
3120 3123 3127 3130 3134 3137 3139 3140 3142 3144 3144 3145 3148 3151 3153 3156 3159 3161 3162 3163 3163 3164 3167 3168 3168 3167 3167 3169 3170 3169 3170 3170 3169 3172 3174 3176 3176 3174 3175 3176 3177 3177 3177 3178 3179
3121 3123 3127 3131 3134 3137 3137 3140 3142 3144 3144 3146 3148 3150 3151 3153 3156 3159 3161 3163 3163 3163 3165 3166 3167 3168 3168 3168 3168 3169 3168 3168 3169 3169 3170 3176 3173 3172 3175 3176 3177 3178 3178 3178 3180
3121 3124 3126 3130 3135 3135 3137 3139 3141 3144 3145 3146 3147 3149 3151 3152 3153 3156 3159 3160 3163 3164 3165 3166 3166 3166 3167 3167 3167 3167 3167 3167 3167 3169 3168 3168 3171 3170 3172 3174 3176 3177 3177 3178 3179
3123 3124 3127 3130 3134 3135 3137 3139 3141 3143 3144 3145 3146 3148 3150 3152 3155 3155 3156 3158 3160 3162 3164 3165 3165 3165 3166 3168 3167 3166 3166 3165 3165 3165 3165 3166 3167 3167 3168 3170 3172 3173 3174 3174 3175
3126 3127 3129 3130 3133 3135 3136 3138 3140 3142 3143 3145 3146 3148 3150 3152 3153 3154 3155 3157 3159 3161 3163 3163 3163 3163 3164 3164 3165 3165 3164 3164 3164 3164 3163 3162 3163 3164 3164 3165 3168 3169 3170 3171 3170
3127 3127 3129 3130 3132 3133 3136 3138 3139 3141 3143 3145 3147 3149 3151 3152 3152 3153 3154 3156 3158 3159 3160 3162 3161 3161 3161 3162 3162 3161 3161 3161 3161 3162 3161 3161 3161 3161 3161 3162 3163 3165 3166 3167 3167
3127 3128 3129 3129 3131 3133 3136 3137 3138 3140 3143 3145 3147 3149 3151 3152 3153 3153 3154 3156 3157 3158 3159 3159 3159 3159 3160 3160 3158 3157 3156 3156 3156 3156 3156 3157 3158 3159 3159 3160 3161 3162 3163 3163 3163
3128 3129 3130 3130 3131 3133 3135 3136 3138 3140 3142 3144 3145 3147 3148 3151 3152 3153 3154 3154 3155 3156 3157 3157 3158 3158 3157 3157 3155 3154 3152 3152 3151 3152 3153 3154 3155 3155 3157 3159 3159 3159 3161 3161 3161
Wind_Speed
11 10 9 8 8 7 6 4 4 4 7 10 10 9 9 9 7 11 11 14 17 12 9 8 5 3 3 3 4 6 6 6 9 10 8 8 7 9 8 8 8 7 2 4 2
10 9 9 8 8 7 6 5 4 4 4 7 11 11 10 10 9 10 15 16 15 10 7 4 3 4 5 4 4 5 6 8 10 11 16 16 11 7 10 14 11 8 2 7 9
11 10 9 9 9 8 8 7 7 6 5 6 9 12 13 11 10 11 13 14 14 7 6 5 6 6 6 6 7 7 8 12 10 9 8 8 10 8 11 16 16 9 3 9 9
11 11 11 11 10 10 9 9 9 9 8 8 9 11 14 14 11 13 13 14 14 8 6 7 8 13 9 9 7 6 4 4 9 6 5 6 10 9 13 15 20 14 11 11 13
11 13 13 13 12 12 12 12 11 11 11 11 10 11 14 18 13 17 15 15 16 10 7 7 9 14 11 12 6 7 5 3 5 4 3 3 5 7 10 13 14 22 16 16 15
7 12 14 15 15 14 14 14 14 13 13 12 11 11 14 19 18 18 16 16 18 13 10 8 9 16 17 12 8 6 6 5 6 4 5 5 7 7 9 9 10 15 19 12 11
5 7 11 14 15 16 15 14 13 12 11 10 10 10 14 17 21 16 16 18 17 18 14 11 6 15 14 10 7 2 5 4 5 4 7 8 10 8 8 6 7 9 15 17 14
6 6 8 10 13 14 15 13 11 10 10 9 9 9 12 21 19 13 17 18 18 21 16 12 8 11 11 11 8 7 8 9 7 10 7 8 8 9 10 7 4 6 9 14 16
8 7 7 8 10 12 13 12 9 8 7 7 9 9 12 13 16 13 19 19 20 22 19 16 11 10 7 3 1 3 7 7 8 8 11 8 4 6 9 10 6 6 7 9 15
9 7 7 7 8 9 10 10 8 8 9 9 10 10 10 11 16 15 20 22 21 22 21 20 19 17 11 4 4 9 7 10 10 4 11 10 2 6 6 10 9 6 6 9 8
9 8 7 7 7 8 9 9 9 9 11 11 13 10 12 10 11 13 21 23 22 21 19 21 24 21 10 7 8 12 10 7 7 7 12 7 8 9 8 9 9 5 4 7 7
9 9 8 7 7 8 10 12 11 9 13 10 12 14 12 9 12 15 19 19 17 16 16 16 18 11 9 7 7 5 7 8 6 4 7 10 12 14 16 10 7 3 4 5 3
9 9 8 6 8 10 13 12 9 11 11 13 13 14 12 11 11 13 13 14 15 17 13 12 12 10 6 6 9 9 14 7 8 6 3 6 14 12 6 5 1 2 2 3 2
9 10 8 8 10 14 13 11 8 9 7 13 13 11 10 14 13 11 9 12 13 11 7 9 8 4 4 5 5 6 2 2 5 2 4 5 5 5 4 2 2 3 4 4 3
9 10 9 9 12 15 15 9 11 9 3 10 13 8 9 10 14 14 12 9 8 8 8 7 7 6 3 4 7 5 5 6 8 8 8 9 5 5 4 6 5 3 3 4 5
10 11 10 11 13 16 15 6 8 2 2 8 10 11 14 13 9 10 13 10 4 6 12 14 10 8 7 4 10 9 9 10 11 9 3 3 5 2 8 11 8 5 7 6 7
9 11 12 13 13 14 13 9 4 3 10 9 10 13 16 14 8 8 13 13 6 5 9 7 11 13 12 9 8 8 6 4 1 2 2 4 1 1 7 9 5 4 6 6 10
9 12 13 14 13 13 13 12 3 5 5 7 9 13 16 14 10 9 8 12 11 8 7 4 3 5 12 12 7 8 10 4 3 2 1 4 2 1 5 6 6 2 2 4 4
9 12 14 15 14 13 14 11 4 6 8 6 12 12 15 13 5 8 6 5 7 7 6 2 5 4 2 3 6 3 6 4 2 1 3 3 7 7 7 6 1 4 1 2 8
8 12 14 15 16 14 16 9 6 7 8 8 7 6 6 12 11 7 5 2 10 14 10 4 1 8 5 4 1 4 5 4 2 1 2 4 5 6 13 12 11 9 11 9 6
8 13 16 16 17 14 17 11 8 6 5 7 8 5 3 12 13 13 6 4 5 9 9 6 2 1 3 3 3 2 2 2 2 1 5 3 4 16 17 15 14 10 6 6 4
9 13 18 18 16 15 15 10 6 4 3 5 8 6 3 7 9 16 17 12 9 8 5 1 2 3 2 7 4 2 0 2 2 3 3 3 4 21 20 17 14 9 7 7 5
9 15 17 16 13 9 9 9 6 4 6 7 6 8 7 13 9 9 16 16 15 10 5 4 4 2 3 5 6 3 1 2 2 3 5 5 6 25 24 21 15 11 10 8 7
10 8 13 15 11 10 8 9 6 5 10 8 9 7 6 14 8 12 18 16 14 11 6 5 4 4 4 5 7 7 5 6 7 5 6 10 7 20 26 22 14 13 12 9 9
6 7 9 10 12 13 11 9 7 8 14 10 8 7 12 8 9 11 15 14 11 9 8 4 4 5 5 8 12 15 18 16 14 14 13 14 12 17 26 20 15 15 12 12 15
6 6 8 8 11 11 8 6 8 11 13 11 7 7 7 5 6 9 12 10 9 7 5 6 4 7 8 10 15 16 18 19 18 17 17 13 10 19 24 20 16 14 14 17 18
7 7 6 7 9 9 9 9 8 6 8 10 8 6 7 5 7 9 11 11 11 10 10 10 9 10 15 15 13 12 12 12 12 12 12 11 11 18 20 19 17 16 13 14 16
Wind_Direction
183 189 192 189 182 176 173 170 177 188 201 207 205 198 187 179 170 161 156 158 150 146 109 79 51 225 208 144 112 118 106 102 85 54 66 78 54 28 9 328 328 329 327 182 131
195 201 203 198 193 191 194 197 205 212 214 212 211 208 201 188 174 161 171 166 168 143 110 97 116 200 178 123 140 164 87 93 88 83 75 71 60 17 18 12 5 354 2 169 108
208 212 214 213 213 214 220 224 229 234 240 234 218 212 208 196 176 178 183 190 186 159 116 105 115 179 187 174 168 137 90 80 90 81 64 65 50 37 20 26 30 9 82 153 137
218 223 225 227 228 232 235 240 242 244 246 248 235 215 209 200 179 187 190 203 188 155 147 119 128 173 167 163 173 170 164 50 50 52 50 45 40 30 46 44 54 67 125 134 141
227 229 233 236 239 244 247 250 252 252 253 252 243 224 211 201 179 189 192 203 188 175 178 139 137 171 162 169 174 170 184 282 304 352 25 341 21 8 29 38 45 61 94 124 136
244 236 236 240 242 245 249 252 257 259 258 254 244 226 212 198 192 189 196 201 198 193 192 166 125 139 161 162 172 190 223 270 278 306 289 303 313 326 2 16 33 55 72 114 131
274 254 243 240 242 245 247 251 256 257 254 248 236 220 208 179 193 192 193 202 202 197 204 184 127 147 174 175 210 208 218 253 277 265 267 273 298 317 325 344 24 44 65 81 106
282 274 259 245 241 241 244 246 249 254 248 234 219 204 175 191 186 188 200 203 203 200 207 195 161 164 170 184 223 248 253 265 277 258 259 253 331 335 5 339 333 44 61 78 91
278 278 271 255 239 235 236 236 239 230 212 198 192 189 191 195 190 195 195 204 205 206 210 218 215 207 200 201 257 303 303 276 296 251 249 253 322 328 14 11 330 25 45 70 90
274 272 272 259 239 228 225 220 206 196 181 171 165 157 171 170 183 200 194 198 207 216 217 224 237 236 226 226 320 328 315 269 279 270 233 258 326 294 335 1 2 347 44 66 85
272 264 265 258 235 217 209 197 186 185 175 164 160 167 161 163 178 183 189 189 205 216 215 214 225 229 218 243 312 329 323 298 294 288 235 265 296 298 308 320 340 39 6 88 90
268 254 255 249 222 200 190 186 181 174 170 172 169 154 149 153 166 170 172 180 195 190 186 202 204 199 201 276 309 291 282 308 306 297 252 253 283 295 304 315 325 349 64 28 92
264 245 242 233 205 185 187 176 168 168 168 175 167 159 141 127 135 146 170 184 177 174 186 186 161 180 256 230 237 265 273 285 301 263 265 279 298 297 301 331 235 141 176 121 89
257 236 229 215 195 187 181 172 165 161 159 176 174 172 158 152 141 142 147 166 170 173 185 187 180 214 288 224 238 330 52 340 330 236 268 248 285 316 255 241 191 225 152 135 116
249 226 217 207 197 188 171 154 154 141 98 166 184 181 181 160 161 158 156 175 189 189 205 193 203 248 247 212 239 280 286 284 288 283 267 270 241 318 254 200 171 217 254 160 209
236 217 207 202 197 191 183 167 153 164 123 145 172 189 171 157 155 181 187 195 156 220 243 218 237 252 233 254 247 268 284 291 282 253 254 141 220 343 142 173 177 221 249 214 204
224 207 199 199 195 185 183 177 181 196 144 164 168 174 168 167 168 176 201 201 197 208 241 246 254 263 246 245 244 250 279 306 20 16 174 228 12 300 144 162 195 214 232 263 216
214 199 194 195 188 172 165 168 195 139 119 152 167 180 182 184 190 199 206 206 212 226 287 303 185 286 231 236 238 248 250 249 201 197 205 110 89 79 119 156 171 257 240 304 259
203 193 190 187 180 173 173 184 124 105 71 134 154 175 193 203 185 213 246 245 232 233 223 290 32 131 112 220 248 262 303 304 231 105 112 107 133 121 124 103 103 163 188 229 161
188 183 182 179 176 185 187 184 126 91 101 125 148 163 188 212 216 183 191 200 248 246 257 262 170 63 143 132 15 283 273 257 227 137 133 163 192 194 152 141 144 143 141 143 129
165 168 171 174 180 192 203 202 153 68 88 119 140 193 230 206 224 211 195 251 250 205 218 241 251 329 161 110 213 290 301 283 220 161 156 160 209 180 175 169 166 160 158 140 142
157 164 167 173 181 199 208 211 206 69 129 131 164 198 181 192 207 211 213 208 201 173 177 167 285 347 225 158 206 164 160 32 180 204 200 174 180 186 192 199 196 197 233 230 246
147 162 166 175 191 196 205 210 213 123 135 158 169 175 191 177 174 189 182 176 183 176 195 260 278 303 135 212 210 214 294 316 306 202 197 173 210 190 192 195 208 227 220 229 254
155 156 177 178 185 189 205 199 176 183 148 141 164 166 179 193 202 173 184 188 195 206 224 250 255 341 286 245 240 266 278 294 289 265 233 216 228 207 201 209 226 226 228 235 245
178 169 168 174 191 186 199 182 194 183 173 169 166 163 183 179 185 198 194 183 190 204 224 246 276 302 295 279 286 284 283 283 278 276 262 268 250 225 212 221 228 227 233 241 257
156 144 157 164 198 195 201 190 171 179 178 192 195 200 207 225 228 214 206 217 232 238 253 280 287 262 259 276 282 281 277 279 275 263 255 256 248 207 210 219 221 232 239 251 259
182 136 122 152 155 173 181 159 144 138 177 200 200 201 194 227 245 223 225 233 238 257 269 273 273 266 267 272 271 281 263 265 255 251 253 245 235 208 206 210 215 231 252 273 285